| time (UTC) | temp F | wind direction | speed MPH | gust MPH | rain 1hr in | rain 24hr in | rain mn in | humidity % | barometer mb |
| 20260502163111 | 71 | 52 | 0.0 | 6.0 | 0.00 | 0.37 | 0.37 | 91 | 1013.1 |
| 20260502161601 | 71 | 98 | 1.0 | 8.0 | 0.00 | 0.37 | 0.37 | 90 | 1013.0 |
| 20260502151620 | 71 | 309 | 2.0 | 6.0 | 0.00 | 0.37 | 0.37 | 92 | 1012.5 |
| 20260502150105 | 70 | 296 | 1.0 | 5.0 | 0.00 | 0.37 | 0.37 | 92 | 1013.1 |
| 20260502130109 | 69 | 41 | 3.0 | 5.0 | 0.00 | 0.35 | 0.35 | 95 | 1015.4 |
| 20260502123105 | 69 | 30 | 3.0 | 6.0 | 0.00 | 0.35 | 0.35 | 96 | 1015.8 |
| 20260502121601 | 69 | 300 | 1.0 | 7.0 | 0.00 | 0.35 | 0.35 | 96 | 1016.1 |
| 20260502114604 | 69 | 271 | 1.0 | 3.0 | 0.01 | 0.35 | 0.35 | 96 | 1016.1 |
| 20260502113100 | 69 | 60 | 0.0 | 0.0 | 0.02 | 0.35 | 0.35 | 96 | 1016.0 |
| 20260502111600 | 69 | 60 | 0.0 | 0.0 | 0.03 | 0.35 | 0.35 | 96 | 1015.8 |
| 20260502110105 | 69 | 60 | 0.0 | 0.0 | 0.06 | 0.34 | 0.34 | 95 | 1016.3 |
| 20260502110006 | 69 | 60 | 0.0 | 0.0 | 0.06 | 0.34 | 0.34 | 96 | 1016.4 |
| 20260502104559 | 69 | 60 | 0.0 | 4.0 | 0.20 | 0.34 | 0.34 | 95 | 1016.5 |
| 20260502103102 | 69 | 103 | 2.0 | 5.0 | 0.31 | 0.33 | 0.33 | 95 | 1016.5 |
| 20260502101606 | 69 | 104 | 2.0 | 4.0 | 0.32 | 0.32 | 0.32 | 95 | 1017.0 |
| 20260502070002 | 70 | 255 | 0.0 | 0.0 | 0.00 | 0.00 | 0.00 | 93 | 1013.0 |
| 20260502064559 | 70 | 255 | 0.0 | 0.0 | 0.00 | 0.00 | 0.00 | 93 | 1013.3 |
| 20260502063059 | 70 | 255 | 0.0 | 0.0 | 0.00 | 0.00 | 0.00 | 93 | 1013.5 |
| 20260502061600 | 70 | 255 | 0.0 | 0.0 | 0.00 | 0.00 | 0.00 | 93 | 1013.3 |
| 20260502060104 | 70 | 255 | 0.0 | 0.0 | 0.00 | 0.00 | 0.00 | 93 | 1013.4 |
| 20260502060002 | 70 | 255 | 0.0 | 0.0 | 0.00 | 0.00 | 0.00 | 93 | 1013.4 |
| 20260502054600 | 70 | 255 | 0.0 | 0.0 | 0.00 | 0.00 | 0.00 | 93 | 1013.6 |
| 20260502053105 | 70 | 255 | 0.0 | 0.0 | 0.00 | 0.00 | 0.00 | 93 | 1013.8 |
| 20260502051603 | 70 | 255 | 0.0 | 0.0 | 0.00 | 0.00 | 0.00 | 93 | 1013.8 |
| 20260502050001 | 70 | 255 | 0.0 | 0.0 | 0.00 | 0.00 | 0.00 | 93 | 1013.8 |
| 20260502044558 | 70 | 255 | 0.0 | 1.0 | 0.00 | 0.00 | 0.00 | 93 | 1013.9 |
| 20260502043106 | 70 | 255 | 0.0 | 1.0 | 0.00 | 0.00 | 0.00 | 93 | 1013.8 |
| 20260502041558 | 70 | 255 | 0.0 | 2.0 | 0.00 | 0.00 | 0.00 | 93 | 1014.0 |
| 20260502040058 | 70 | 255 | 0.0 | 2.0 | 0.00 | 0.00 | 0.00 | 93 | 1014.1 |
| 20260502040002 | 70 | 255 | 0.0 | 2.0 | 0.00 | 0.00 | 0.00 | 93 | 1014.1 |
| 20260502034600 | 70 | 255 | 0.0 | 0.0 | 0.00 | 0.00 | 0.00 | 93 | 1014.2 |
| 20260502034502 | 70 | 255 | 0.0 | 0.0 | 0.00 | 0.00 | 0.00 | 93 | 1014.2 |
| 20260502033100 | 70 | 255 | 0.0 | 0.0 | 0.00 | 0.00 | 0.00 | 93 | 1014.2 |
| 20260502031601 | 70 | 255 | 0.0 | 0.0 | 0.00 | 0.00 | 0.00 | 93 | 1014.5 |
| 20260502030004 | 69 | 255 | 0.0 | 0.0 | 0.00 | 0.00 | 0.00 | 93 | 1014.7 |
| 20260502024559 | 69 | 255 | 0.0 | 0.0 | 0.00 | 0.00 | 0.00 | 93 | 1014.7 |
| 20260502023059 | 69 | 255 | 0.0 | 0.0 | 0.00 | 0.00 | 0.00 | 93 | 1014.7 |
| 20260502021602 | 69 | 255 | 0.0 | 0.0 | 0.00 | 0.00 | 0.00 | 93 | 1014.9 |
| 20260502020004 | 69 | 255 | 0.0 | 0.0 | 0.00 | 0.00 | 0.00 | 93 | 1014.9 |
| 20260502014603 | 69 | 255 | 0.0 | 0.0 | 0.00 | 0.00 | 0.00 | 93 | 1014.8 |
| 20260502013102 | 69 | 255 | 0.0 | 0.0 | 0.00 | 0.00 | 0.00 | 93 | 1014.8 |
| 20260502011559 | 69 | 255 | 0.0 | 0.0 | 0.00 | 0.00 | 0.00 | 93 | 1014.9 |
| 20260502010006 | 69 | 255 | 0.0 | 0.0 | 0.00 | 0.00 | 0.00 | 93 | 1015.1 |
| 20260502004605 | 69 | 255 | 0.0 | 0.0 | 0.00 | 0.00 | 0.00 | 93 | 1015.0 |
| 20260502003059 | 69 | 255 | 0.0 | 0.0 | 0.00 | 0.00 | 0.00 | 92 | 1015.0 |
| 20260502001559 | 69 | 255 | 0.0 | 0.0 | 0.00 | 0.00 | 0.00 | 92 | 1015.1 |
| 20260502000111 | 69 | 255 | 0.0 | 0.0 | 0.00 | 0.00 | 0.00 | 92 | 1015.2 |
| 20260502000008 | 69 | 255 | 0.0 | 0.0 | 0.00 | 0.00 | 0.00 | 92 | 1015.2 |
| 20260501234606 | 69 | 255 | 0.0 | 0.0 | 0.00 | 0.00 | 0.00 | 91 | 1015.1 |
| 20260501233103 | 69 | 255 | 0.0 | 0.0 | 0.00 | 0.00 | 0.00 | 90 | 1015.0 |
| 20260501231601 | 69 | 255 | 0.0 | 0.0 | 0.00 | 0.00 | 0.00 | 90 | 1015.0 |
| 20260501230002 | 70 | 255 | 0.0 | 0.0 | 0.00 | 0.00 | 0.00 | 89 | 1015.0 |
| 20260501224605 | 70 | 255 | 0.0 | 0.0 | 0.00 | 0.00 | 0.00 | 89 | 1014.8 |
| 20260501223102 | 71 | 255 | 0.0 | 0.0 | 0.00 | 0.00 | 0.00 | 89 | 1014.7 |
| 20260501221603 | 71 | 255 | 0.0 | 0.0 | 0.00 | 0.00 | 0.00 | 88 | 1014.6 |
| 20260501220004 | 71 | 255 | 0.0 | 2.0 | 0.00 | 0.00 | 0.00 | 88 | 1014.6 |
| 20260501214559 | 71 | 255 | 0.0 | 3.0 | 0.00 | 0.00 | 0.00 | 88 | 1014.6 |
| 20260501213105 | 72 | 210 | 1.0 | 3.0 | 0.00 | 0.00 | 0.00 | 87 | 1014.4 |
| 20260501211600 | 72 | 228 | 0.0 | 3.0 | 0.00 | 0.00 | 0.00 | 87 | 1014.3 |
| 20260501210059 | 72 | 274 | 1.0 | 3.0 | 0.00 | 0.00 | 0.00 | 86 | 1014.1 |
| 20260501210002 | 73 | 274 | 1.0 | 3.0 | 0.00 | 0.00 | 0.00 | 86 | 1014.1 |
| 20260501204608 | 73 | 280 | 0.0 | 4.0 | 0.00 | 0.00 | 0.00 | 85 | 1014.0 |
| 20260501203059 | 74 | 261 | 1.0 | 5.0 | 0.00 | 0.00 | 0.00 | 83 | 1013.9 |
| 20260501201611 | 76 | 258 | 1.0 | 4.0 | 0.00 | 0.00 | 0.00 | 80 | 1013.9 |
| 20260501200059 | 79 | 33 | 1.0 | 3.0 | 0.00 | 0.00 | 0.00 | 75 | 1013.9 |
| 20260501200001 | 79 | 33 | 1.0 | 3.0 | 0.00 | 0.00 | 0.00 | 75 | 1013.9 |
| 20260501194559 | 81 | 36 | 0.0 | 2.0 | 0.00 | 0.00 | 0.00 | 72 | 1013.7 |
| 20260501193102 | 81 | 36 | 1.0 | 5.0 | 0.00 | 0.00 | 0.00 | 71 | 1013.7 |
| 20260501191559 | 83 | 1 | 0.0 | 1.0 | 0.00 | 0.00 | 0.00 | 69 | 1013.7 |
| 20260501190058 | 83 | 1 | 0.0 | 2.0 | 0.00 | 0.00 | 0.00 | 70 | 1013.9 |
| 20260501190002 | 82 | 1 | 0.0 | 2.0 | 0.00 | 0.00 | 0.00 | 69 | 1013.9 |
| 20260501184603 | 82 | 353 | 1.0 | 3.0 | 0.00 | 0.00 | 0.00 | 67 | 1013.9 |
| 20260501183059 | 82 | 63 | 1.0 | 4.0 | 0.00 | 0.00 | 0.00 | 67 | 1014.2 |
| 20260501181559 | 81 | 90 | 1.0 | 3.0 | 0.00 | 0.00 | 0.00 | 68 | 1014.3 |
| 20260501180059 | 81 | 313 | 1.0 | 2.0 | 0.00 | 0.00 | 0.00 | 68 | 1014.6 |
| 20260501180003 | 81 | 313 | 1.0 | 2.0 | 0.00 | 0.00 | 0.00 | 68 | 1014.6 |
| 20260501174559 | 80 | 317 | 1.0 | 4.0 | 0.00 | 0.00 | 0.00 | 73 | 1014.8 |
| 20260501173059 | 81 | 43 | 0.0 | 4.0 | 0.00 | 0.00 | 0.00 | 68 | 1014.9 |
| 20260501171559 | 80 | 266 | 2.0 | 6.0 | 0.00 | 0.00 | 0.00 | 70 | 1015.1 |
| 20260501170100 | 80 | 57 | 3.0 | 6.0 | 0.00 | 0.00 | 0.00 | 69 | 1015.3 |
| 20260501170001 | 80 | 32 | 2.0 | 4.0 | 0.00 | 0.00 | 0.00 | 69 | 1015.3 |